This demonstration page uses our WeatherBlox Daily Observations layout. Learn more.

40.92945, -100.16068

Hourly Observations for January 19, 2020

Temp ( °F °C ) Dew Point ( °F °C ) Humidity (%) Winds ( mph kmh ) Pressure ( in mb ) Visibility ( mi km ) Precip ( " mm )
12:15 am 00:15 Clear 18 -7.6 15 -9.5 86 86 WNW 6 9 30.59 1036 10 16.0934 0 0
12:35 am 00:35 Clear 18 -7.7 15 -9.5 87 87 Calm 30.59 1036 10 16.0934 0 0
12:55 am 00:55 Clear 18 -7.8 14 -9.8 86 86 Calm 30.59 1036 10 16.0934 0 0
1:15 am 01:15 Clear 18 -7.6 15 -9.5 86 86 W 6 9 30.59 1036 10 16.0934 0 0
1:35 am 01:35 Clear 18 -7.6 15 -9.6 86 86 W 8 13 30.59 1036 10 16.0934 0 0
1:55 am 01:55 Clear 18 -7.6 15 -9.5 86 86 W 8 13 30.59 1036 10 16.0934 0 0
2:15 am 02:15 Clear 18 -7.7 15 -9.5 87 87 WNW 7 11 30.59 1036 10 16.0934 0 0
2:35 am 02:35 Clear 17 -8.5 13 -10.3 87 87 WNW 6 9 30.61 1036 10 16.0934 0 0
2:55 am 02:55 Clear 17 -8.5 13 -10.5 86 86 WNW 6 9 30.62 1037 10 16.0934 0 0
3:15 am 03:15 Clear 17 -8.5 13 -10.5 86 86 WNW 6 9 30.62 1037 10 16.0934 0 0
3:35 am 03:35 Clear 15 -9.2 13 -10.5 90 90 W 7 11 30.62 1037 10 16.0934 0 0
3:55 am 03:55 Clear 16 -8.7 13 -10.5 87 87 WNW 6 9 30.63 1037 10 16.0934 0 0
4:15 am 04:15 Clear 15 -9.6 12 -11.2 88 88 WNW 3 6 30.64 1038 10 16.0934 0 0
4:35 am 04:35 Clear 15 -9.3 12 -11 88 88 NW 3 6 30.64 1037 10 16.0934 0 0
4:55 am 04:55 Clear 14 -10.1 11 -11.6 89 89 NW 6 9 30.65 1038 10 16.0934 0 0
5:15 am 05:15 Clear 14 -9.8 11 -11.5 88 88 NNW 5 7 30.65 1038 10 16.0934 0 0
5:35 am 05:35 Clear 13 -10.4 10 -12 88 88 NW 5 7 30.66 1038 10 16.0934 0 0
5:55 am 05:55 Clear 13 -10.5 10 -12 89 89 NW 5 7 30.67 1039 10 16.0934 0 0
6:15 am 06:15 Clear 13 -10.5 10 -12.1 88 88 NW 5 7 30.67 1039 10 16.0934 0 0
6:35 am 06:35 Clear 13 -10.5 10 -12.2 87 87 NW 6 9 30.67 1039 10 16.0934 0 0
6:55 am 06:55 Clear 12 -10.9 10 -12.5 88 88 Calm 30.69 1039 10 16.0934 0 0
7:15 am 07:15 Clear 13 -10.8 10 -12.5 87 87 NNW 5 7 30.7 1040 10 16.0934 0 0
7:35 am 07:35 Clear 12 -11.1 9 -12.7 88 88 NNW 5 7 30.71 1040 10 16.0934 0 0
7:55 am 07:55 Clear 12 -11 9 -12.6 88 88 NNW 5 7 30.7 1040 10 16.0934 0 0
8:15 am 08:15 Sunny 12 -11.2 9 -12.9 87 87 NNW 3 6 30.72 1040 10 16.0934 0 0
8:35 am 08:35 Sunny 12 -11 9 -12.7 87 87 Calm 30.72 1040 10 16.0934 0 0
8:55 am 08:55 Sunny 14 -10.2 10 -12 87 87 Calm 30.71 1040 10 16.0934 0 0
9:15 am 09:15 Sunny 16 -8.9 12 -11.2 84 84 Calm 30.71 1040 10 16.0934 0 0
9:35 am 09:35 Sunny 17 -8.2 11 -11.4 78 78 Calm 30.69 1039 10 16.0934 0 0
9:55 am 09:55 Sunny 18 -7.7 9 -12.7 68 68 N 5 7 30.7 1040 10 16.0934 0 0
10:15 am 10:15 Sunny 19 -7.5 10 -12.3 69 69 Calm 30.72 1040 10 16.0934 0 0
10:35 am 10:35 Sunny 19 -7.2 10 -12 69 69 Calm 30.72 1040 10 16.0934 0 0
10:55 am 10:55 Sunny 20 -6.9 11 -11.9 68 68 Calm 30.72 1040 10 16.0934 0 0
11:15 am 11:15 Sunny 21 -6.3 11 -11.6 66 66 Calm 30.73 1041 10 16.0934 0 0
11:35 am 11:35 Sunny 21 -6.1 12 -11.3 67 67 Calm 30.73 1041 10 16.0934 0 0
11:55 am 11:55 Sunny 22 -5.7 12 -11.2 66 66 Calm 30.72 1040 10 16.0934 0 0
12:15 pm 12:15 Sunny 23 -5.1 12 -11 64 64 Calm 30.71 1040 10 16.0934 0 0
12:35 pm 12:35 Sunny 23 -5.1 14 -10.1 68 68 Calm 30.7 1040 10 16.0934 0 0
12:55 pm 12:55 Sunny 24 -4.6 14 -9.8 67 67 Calm 30.69 1039 10 16.0934 0 0
1:15 pm 13:15 Sunny 25 -4 14 -9.8 64 64 Calm 30.66 1038 10 16.0934 0 0
1:35 pm 13:35 Sunny 26 -3.6 15 -9.5 64 64 Calm 30.65 1038 10 16.0934 0 0
1:55 pm 13:55 Sunny 26 -3.5 15 -9.7 63 63 Calm 30.63 1037 10 16.0934 0 0
2:15 pm 14:15 Sunny 27 -2.6 16 -8.9 62 62 SSE 5 7 30.61 1036 10 16.0934 0 0
2:35 pm 14:35 Sunny 29 -1.7 18 -7.9 63 63 SSE 3 6 30.6 1036 10 16.0934 0 0
2:55 pm 14:55 Sunny 30 -1 18 -7.7 61 61 SSW 6 9 30.58 1036 10 16.0934 0 0
3:15 pm 15:15 Sunny 31 -0.6 19 -7.4 60 60 SSE 5 7 30.57 1035 10 16.0934 0 0
3:35 pm 15:35 Sunny 32 -0.2 20 -6.8 61 61 S 7 11 30.56 1035 10 16.0934 0 0
3:55 pm 15:55 Sunny 32 0 20 -6.4 62 62 SSW 7 11 30.57 1035 10 16.0934 0 0
4:15 pm 16:15 Sunny 32 0 21 -5.9 65 65 SSW 7 11 30.57 1035 10 16.0934 0 0
4:35 pm 16:35 Sunny 32 0 21 -6 64 64 SSW 6 9 30.56 1035 10 16.0934 0 0
4:55 pm 16:55 Sunny 32 0 22 -5.4 67 67 SSW 6 9 30.56 1035 10 16.0934 0 0
5:15 pm 17:15 Sunny 31 -0.5 23 -4.8 73 73 S 5 7 30.56 1035 10 16.0934 0 0
5:35 pm 17:35 Sunny 30 -1.2 24 -4.7 77 77 SSW 6 9 30.56 1035 10 16.0934 0 0
5:55 pm 17:55 Clear 29 -1.9 23 -5 80 80 S 6 9 30.58 1035 10 16.0934 0 0
6:15 pm 18:15 Clear 27 -2.6 22 -5.3 82 82 SSE 5 7 30.58 1036 10 16.0934 0 0
6:35 pm 18:35 Clear 27 -2.8 22 -5.6 81 81 SE 6 9 30.59 1036 10 16.0934 0 0
6:55 pm 18:55 Clear 26 -3.2 22 -5.7 83 83 ESE 5 7 30.59 1036 10 16.0934 0 0
7:15 pm 19:15 Clear 25 -4 22 -5.8 87 87 E 8 13 30.62 1037 10 16.0934 0 0
7:35 pm 19:35 Clear 23 -5 19 -7 86 86 E 8 13 30.63 1037 10 16.0934 0 0
7:55 pm 19:55 Clear 22 -5.5 18 -7.6 85 85 ESE 6 9 30.64 1037 10 16.0934 0 0
8:15 pm 20:15 Clear 22 -5.8 18 -7.7 87 87 SE 6 9 30.64 1038 10 16.0934 0 0
8:35 pm 20:35 Clear 21 -5.9 18 -8 85 85 SE 8 13 30.64 1038 10 16.0934 0 0
8:55 pm 20:55 Clear 21 -6 18 -8 86 86 SE 7 11 30.64 1038 10 16.0934 0 0
9:15 pm 21:15 Clear 21 -6.1 18 -7.7 89 89 E 7 11 30.64 1038 10 16.0934 0 0
9:35 pm 21:35 Clear 20 -6.5 17 -8.1 89 89 ESE 6 9 30.65 1038 10 16.0934 0 0
9:55 pm 21:55 Clear 19 -7 17 -8.5 89 89 ESE 5 7 30.65 1038 10 16.0934 0 0
10:15 pm 22:15 Clear 19 -7 16 -8.7 88 88 SE 5 7 30.64 1038 10 16.0934 0 0
10:35 pm 22:35 Clear 19 -7.1 16 -8.9 87 87 ESE 5 7 30.64 1038 10 16.0934 0 0
10:55 pm 22:55 Clear 19 -7.5 16 -9 89 89 ESE 5 7 30.65 1038 10 16.0934 0 0
11:15 pm 23:15 Clear 17 -8.1 15 -9.6 89 89 E 8 13 30.65 1038 10 16.0934 0 0
11:35 pm 23:35 Clear 17 -8.6 14 -10 90 90 E 8 13 30.67 1039 10 16.0934 0 0
11:55 pm 23:55 Clear 16 -9 13 -10.5 89 89 E 9 15 30.66 1038 10 16.0934 0 0

Powered by AerisWeather